FW4321 New York NY US current weather conditions

sailwx.info

Wind from 223 at 0 knots gusting 7

Air temperature 16.7° C
Dewpoint 11.8° C

Last reported at 2019-Oct-14 15:02 UTC.
Time now 2019-Oct-14 15:17 UTC

Location: N 40°46' W 073°57'.
View on Google Maps.

See reports from other nearby stations

  
Tides and Currents Weather Stations Pressure Air Temp Water Temp Dewpoint Dewpoint Depression Visibility Wind Speed Wind Dir Waves Ship Positions
date/time (UTC)wind fromknots sea level pressurealtimeterstation pressurevisibilityair tempwater tempwave heightnotes
2019-Oct-14 15:02 223 0 gusting 7 16.7
2019-Oct-14 14:46 192 1 gusting 8 16.1
2019-Oct-14 14:31 323 0 gusting 8 16.1
2019-Oct-14 14:15 224 3 gusting 6 16.1
2019-Oct-14 14:01 236 16.1
2019-Oct-14 13:45 227 2 gusting 5 16.1
2019-Oct-14 13:31 207 4 gusting 7 15.6
2019-Oct-14 13:16 188 1 gusting 6 15.6
2019-Oct-14 13:00 344 15.6
2019-Oct-14 12:45 248 15.6
2019-Oct-14 12:31 271 1 gusting 3 15.6
2019-Oct-14 12:15 205 15.6
2019-Oct-14 12:01 290 0 gusting 3 15.6
2019-Oct-14 11:46 252 0 gusting 6 15.6
2019-Oct-14 11:30 167 15.6
2019-Oct-14 11:16 360 0 gusting 3 15.6
2019-Oct-14 11:00 104 0 gusting 3 15.0
2019-Oct-14 10:45 135 0 gusting 2 15.0
2019-Oct-14 10:31 090 0 gusting 3 15.0
2019-Oct-14 10:16 093 1 gusting 5 15.0
2019-Oct-14 10:00 088 3 gusting 8 15.0
2019-Oct-14 09:45 148 0 gusting 5 15.0
2019-Oct-14 09:30 094 2 gusting 5 15.0
2019-Oct-14 09:15 099 3 gusting 5 15.0
2019-Oct-14 09:01 083 3 gusting 6 15.0
2019-Oct-14 08:45 090 3 gusting 6 15.6
2019-Oct-14 08:30 093 3 gusting 6 15.6
2019-Oct-14 08:15 248 15.6
2019-Oct-14 08:01 307 0 gusting 3 15.6
2019-Oct-14 07:45 304 15.6
2019-Oct-14 07:30 236 15.6
2019-Oct-14 07:15 099 1 gusting 6 16.1
2019-Oct-14 07:00 104 2 gusting 5 16.1
2019-Oct-14 06:45 286 1 gusting 4 16.1
2019-Oct-14 06:30 236 16.1
2019-Oct-14 06:15 117 16.1
2019-Oct-14 06:01 117 1 gusting 3 16.1
2019-Oct-14 05:47 269 16.1
2019-Oct-14 05:32 269 0 gusting 2 16.1
2019-Oct-14 05:17 254 0 gusting 3 16.1
2019-Oct-14 05:01 071 16.1
2019-Oct-14 04:46 086 16.1
2019-Oct-14 04:31 241 0 gusting 3 16.1
2019-Oct-14 04:17 316 16.1
2019-Oct-14 04:01 039 16.1
2019-Oct-14 03:46 078 0 gusting 3 16.1
2019-Oct-14 03:31 242 0 gusting 3 16.1
2019-Oct-14 03:16 273 0 gusting 3 16.1
2019-Oct-14 03:02 271 1 gusting 3 16.1
2019-Oct-14 02:47 281 0 gusting 4 16.1
2019-Oct-14 02:31 283 16.1
2019-Oct-14 02:16 287 16.1
2019-Oct-14 02:01 202 16.1
2019-Oct-14 01:46 297 0 gusting 4 16.1
2019-Oct-14 01:31 309 0 gusting 6 16.1
2019-Oct-14 01:17 095 0 gusting 4 15.6
2019-Oct-14 01:01 248 0 gusting 3 15.6
2019-Oct-14 00:46 267 16.1
2019-Oct-14 00:31 291 16.1
2019-Oct-14 00:16 327 0 gusting 2 16.1
2019-Oct-14 00:02 291 0 gusting 4 16.1
2019-Oct-13 23:46 093 0 gusting 6 16.1
2019-Oct-13 23:31 263 2 gusting 5 16.1
2019-Oct-13 23:16 078 0 gusting 4 16.7
2019-Oct-13 23:01 301 2 gusting 6 16.7
2019-Oct-13 22:46 105 1 gusting 5 17.2
2019-Oct-13 22:31 088 0 gusting 6 17.2
2019-Oct-13 22:15 078 0 gusting 6 17.2
2019-Oct-13 22:01 078 3 gusting 6 17.2
2019-Oct-13 21:46 084 1 gusting 6 17.2
2019-Oct-13 21:30 290 1 gusting 4 17.8
2019-Oct-13 21:16 241 2 gusting 6 18.3
2019-Oct-13 21:01 262 2 gusting 6 18.9
2019-Oct-13 20:46 271 1 gusting 7 18.9
2019-Oct-13 20:31 287 0 gusting 2 18.9
2019-Oct-13 20:16 092 19.4
2019-Oct-13 20:00 092 4 gusting 7 18.9
2019-Oct-13 19:46 091 3 gusting 6 18.9
2019-Oct-13 19:30 076 5 gusting 7 18.3
2019-Oct-13 19:15 123 18.9
2019-Oct-13 19:00 090 4 gusting 7 18.3
2019-Oct-13 18:46 072 2 gusting 6 17.8
2019-Oct-13 18:30 084 0 gusting 6 18.3
2019-Oct-13 18:15 096 3 gusting 6 17.8
2019-Oct-13 18:00 092 3 gusting 7 17.8
2019-Oct-13 17:45 114 1 gusting 3 18.3
2019-Oct-13 17:30 187 0 gusting 6 17.8
2019-Oct-13 17:15 042 1 gusting 3 17.2
2019-Oct-13 17:00 255 0 gusting 2 17.2
2019-Oct-13 16:30 119 0 gusting 6 16.1
2019-Oct-13 16:15 240 0 gusting 4 15.6
2019-Oct-13 16:03 042 0 gusting 3 15.0
2019-Oct-13 15:47 009 0 gusting 3 15.0
2019-Oct-13 15:32 136 0 gusting 5 14.4
2019-Oct-13 15:16 191 1 gusting 3 14.4
2019-Oct-13 15:01 133 0 gusting 4 14.4
2019-Oct-13 14:46 021 0 gusting 4 13.9
2019-Oct-13 14:31 298 0 gusting 6 14.4
2019-Oct-13 14:17 327 1 gusting 5 13.9
2019-Oct-13 14:01 276 0 gusting 3 13.9
2019-Oct-13 13:47 096 0 gusting 4 13.3
2019-Oct-13 13:31 268 0 gusting 4 13.3
2019-Oct-13 13:16 259 1 gusting 4 12.8
2019-Oct-13 13:01 294 0 gusting 5 12.8
2019-Oct-13 12:47 302 0 gusting 3 12.2
2019-Oct-13 12:31 281 1 gusting 5 12.2
2019-Oct-13 12:16 287 0 gusting 5 12.2
2019-Oct-13 12:01 279 0 gusting 3 12.2
2019-Oct-13 11:46 321 0 gusting 4 12.2
2019-Oct-13 11:31 248 1 gusting 6 12.2
2019-Oct-13 11:17 350 1 gusting 4 12.2
2019-Oct-13 11:01 325 0 gusting 3 12.2
2019-Oct-13 10:46 263 1 gusting 5 12.2
2019-Oct-13 10:31 254 0 gusting 3 12.8
2019-Oct-13 10:15 306 1 gusting 4 12.8
2019-Oct-13 10:00 192 0 gusting 3 12.8
2019-Oct-13 09:46 227 0 gusting 2 13.3
2019-Oct-13 09:30 210 0 gusting 3 13.3
2019-Oct-13 09:15 324 0 gusting 3 13.3
2019-Oct-13 09:00 193 13.3
2019-Oct-13 08:45 194 0 gusting 2 13.3
2019-Oct-13 08:30 188 0 gusting 3 13.9
2019-Oct-13 08:15 188 0 gusting 2 13.9
2019-Oct-13 08:00 188 13.9
2019-Oct-13 07:45 287 0 gusting 3 13.9
2019-Oct-13 07:30 186 1 gusting 3 14.4
2019-Oct-13 07:15 333 0 gusting 5 14.4
2019-Oct-13 07:00 215 1 gusting 3 14.4
2019-Oct-13 06:45 275 1 gusting 6 14.4
2019-Oct-13 06:30 277 1 gusting 6 15.0
2019-Oct-13 06:15 258 1 gusting 4 15.0
2019-Oct-13 06:00 327 0 gusting 5 15.0
2019-Oct-13 05:46 274 1 gusting 6 15.0
2019-Oct-13 05:32 230 1 gusting 5 15.0
2019-Oct-13 05:16 283 1 gusting 4 15.6
2019-Oct-13 05:02 288 1 gusting 6 15.6
2019-Oct-13 04:46 246 1 gusting 5 15.6
2019-Oct-13 04:32 180 16.1
2019-Oct-13 04:17 217 0 gusting 6 16.1
2019-Oct-13 04:01 252 0 gusting 4 16.1
2019-Oct-13 03:47 232 2 gusting 5 16.1
2019-Oct-13 03:31 201 1 gusting 6 16.7
2019-Oct-13 03:16 190 3 gusting 6 16.7
2019-Oct-13 03:01 323 0 gusting 2 16.7
2019-Oct-13 02:46 188 0 gusting 4 16.7
2019-Oct-13 02:31 238 0 gusting 5 17.2
2019-Oct-13 02:16 157 0 gusting 2 17.2
2019-Oct-13 02:01 231 0 gusting 5 17.2
2019-Oct-13 01:46 189 0 gusting 6 17.2
2019-Oct-13 01:32 232 2 gusting 4 17.2
2019-Oct-13 01:16 198 1 gusting 4 17.8
2019-Oct-13 01:01 199 0 gusting 4 17.8
2019-Oct-13 00:46 320 2 gusting 6 18.3
2019-Oct-13 00:31 231 0 gusting 2 18.3
2019-Oct-13 00:15 229 0 gusting 4 18.3
2019-Oct-13 00:01 201 2 gusting 7 18.9
2019-Oct-12 23:46 182 0 gusting 4 18.9
2019-Oct-12 23:31 261 1 gusting 5 19.4
2019-Oct-12 23:16 225 4 gusting 6 19.4
2019-Oct-12 23:01 218 0 gusting 4 20.0
2019-Oct-12 22:46 254 0 gusting 2 20.0
2019-Oct-12 22:31 193 20.0
2019-Oct-12 22:16 217 0 gusting 2 20.0
2019-Oct-12 22:01 214 0 gusting 3 20.0
2019-Oct-12 21:46 246 0 gusting 2 20.0
2019-Oct-12 21:30 194 0 gusting 3 20.0
2019-Oct-12 21:16 200 0 gusting 3 20.0
2019-Oct-12 21:01 200 19.4
2019-Oct-12 20:46 290 0 gusting 3 20.0
2019-Oct-12 20:30 261 19.4
2019-Oct-12 20:15 238 1 gusting 4 20.0
2019-Oct-12 20:01 293 0 gusting 3 19.4
2019-Oct-12 19:46 254 1 gusting 5 18.9
2019-Oct-12 19:31 203 4 gusting 6 19.4
2019-Oct-12 19:15 191 1 gusting 4 18.9
2019-Oct-12 19:00 248 1 gusting 3 18.9
2019-Oct-12 18:45 018 0 gusting 2 18.3
2019-Oct-12 18:30 199 2 gusting 6 17.8
2019-Oct-12 18:15 182 3 gusting 6 17.8
2019-Oct-12 18:00 155 0 gusting 7 17.8
2019-Oct-12 17:45 232 0 gusting 6 16.7
2019-Oct-12 17:30 260 1 gusting 5 16.7
2019-Oct-12 17:15 233 0 gusting 6 16.7
2019-Oct-12 17:01 119 1 gusting 6 16.1
2019-Oct-12 16:47 080 1 gusting 4 15.6
2019-Oct-12 16:31 344 1 gusting 5 15.0
2019-Oct-12 16:17 094 1 gusting 6 14.4
2019-Oct-12 16:01 281 0 gusting 3 14.4
2019-Oct-12 15:47 235 1 gusting 3 14.4
2019-Oct-12 15:31 252 0 gusting 6 14.4
2019-Oct-12 15:16 005 13.9
2019-Oct-12 15:00 257 13.9